[[{"header":{"parameterUnit":"m.s-1","parameterCategory":1,"la1":30.2991,"la2":30.254,"lo1":-89.0895,"lo2":-89.0444,"dy":0.0017,"dx":0.0017,"nx":28,"ny":28,"refTime":"2025-05-15T09:00:00:Z","depth":0,"parameterNumber":2,"parameterNumberName":"U-component_of_WINDS"},"data":[0,0,0,0,0,0,0,0,0,0,0,0,0,0,0,0,0,0,0,0,0,0,0,0,0,0,0,0,0,0,0,0,0,0,0,0,0,0,0,0,0,0,0,0,0,0,0,0,0,0,0,0,0,0,0,0,0,0,1.3561,1.3562,0,1.3622,1.3623,1.3624,1.3625,1.3625,1.3624,1.3623,1.3685,1.3687,1.3689,0,0,0,0,0,0,0,0,0,0,0,0,0,1.3444,1.3446,1.3561,1.3562,1.3563,1.3622,1.3623,1.3624,1.3626,1.3625,1.3624,1.3623,1.3684,1.3687,1.369,0,0,0,0,0,0,0,0,0,0,0,0,0,1.3499,1.3447,1.3561,1.3571,1.3572,1.3622,1.3623,1.3624,1.3626,1.3625,1.3624,1.3623,1.3683,1.3687,1.369,1.3734,0,0,1.3701,1.3702,0,0,0,0,0,0,0,0,1.3496,1.3503,1.3569,1.357,1.3572,1.3615,1.3604,1.3661,1.3626,1.3605,1.3623,1.3622,1.3663,1.3668,1.3682,1.3737,1.374,1.3701,1.3703,1.3705,1.3706,0,0,0,0,0,0,0,1.3492,1.3501,1.3585,1.357,1.3572,1.3572,1.3578,1.3615,1.3639,1.3607,1.3607,1.3615,1.3663,1.3678,1.3683,1.3741,1.3701,1.3704,1.3706,1.3708,1.3834,1.3835,0,0,0,0,0,0,1.3487,1.3498,1.3583,1.3587,1.3531,1.3575,1.3582,1.3602,1.3639,1.3644,1.3616,1.3615,1.3673,1.3679,1.3685,1.3738,1.3705,1.3708,1.371,1.3833,1.3834,1.3835,0,0,0,0,0,0,1.3484,1.3494,1.3581,1.3543,1.3554,1.3578,1.3601,1.3604,1.3619,1.3646,1.365,1.3627,1.3672,1.368,1.3722,1.3741,1.371,1.3713,1.3831,1.3833,1.3835,1.3845,0,0,0,0,0,0,1.3481,1.3493,1.3511,1.3543,1.3556,1.3617,1.3602,1.3606,1.3625,1.3625,1.3657,1.3661,1.3672,1.3716,1.3725,1.3745,1.3715,1.383,1.3832,1.3834,1.3844,1.3847,1.3851,0,0,0,0,0,1.3477,1.3511,1.3512,1.3522,1.3578,1.3618,1.3625,1.3637,1.3627,1.3644,1.3661,1.366,1.3737,1.3721,1.3731,1.3751,1.3828,1.3831,1.3834,1.3842,1.3847,1.3851,0,0,0,0,0,0,1.3481,1.3516,1.3517,1.3563,1.3588,1.3618,1.3641,1.3642,1.367,1.3668,1.3681,1.3689,1.373,1.3745,1.3726,1.3795,1.3781,1.3786,1.3784,1.3789,1.3792,1.3788,1.3718,0,0,0,0,0,1.3487,1.3517,1.3546,1.3584,1.3597,1.3616,1.3634,1.3641,1.3667,1.3678,1.3697,1.3722,1.3752,1.3771,1.38,1.3846,1.3852,1.3865,1.3869,1.3871,1.3875,1.39,1.3905,1.3845,1.3845,1.3845,0,0,1.35,1.3523,1.3542,1.3586,1.3605,1.3636,1.3625,1.3658,1.368,1.3683,1.3723,1.3738,1.3767,1.381,1.383,1.3824,1.3894,1.3875,1.3877,1.388,1.3903,1.3909,1.3914,1.3847,1.3846,1.3846,0,0,1.354,1.3561,1.3594,1.3614,1.3645,1.3658,1.3666,1.3696,1.3706,1.3747,1.3749,1.3776,1.3827,1.3847,1.3864,1.391,1.391,1.3919,1.3938,1.3961,1.3966,1.397,1.3986,1.3992,1.3923,1.3923,1.3923,0,1.3553,1.3599,1.3611,1.3644,1.3663,1.3666,1.37,1.3719,1.3757,1.3769,1.3762,1.3826,1.3845,1.3893,1.3904,1.3918,1.3927,1.3915,1.3965,1.3969,1.3973,1.3988,1.3994,1.3924,1.3924,1.3924,1.3924,0,1.3612,1.3644,1.3668,1.3704,1.3726,1.3759,1.3776,1.3796,1.3801,1.3814,1.3855,1.3878,1.3912,1.3924,1.3929,1.3972,1.3967,1.3962,1.3948,1.398,1.3994,1.4,1.3925,1.3925,1.3924,1.3924,0,0,1.3656,1.3699,1.3708,1.3724,1.3757,1.3782,1.3815,1.3847,1.3864,1.389,1.3917,1.396,1.3955,1.3974,1.3982,1.4002,1.4036,1.3995,1.3996,1.4001,1.4084,1.4087,1.4094,1.4037,1.4038,1.4039,1.4081,0,1.3699,1.3758,1.3769,1.382,1.3849,1.3853,1.3881,1.3904,1.3917,1.3943,1.3958,1.3988,1.398,1.3991,1.4012,1.4028,1.4053,1.4025,1.4061,1.4062,1.4054,1.4102,1.4105,1.4144,1.4087,1.4088,1.4089,0,1.3757,1.3784,1.3838,1.3866,1.3879,1.3904,1.3935,1.396,1.3986,1.3994,1.4015,1.402,1.4053,1.4038,1.4084,1.4064,1.408,1.409,1.4091,1.4095,1.4077,1.4106,1.4157,1.4163,1.4098,1.4097,1.4097,0,1.3782,1.3833,1.3871,1.3885,1.392,1.3937,1.3952,1.3977,1.3996,1.4022,1.4035,1.4064,1.4081,1.4103,1.4116,1.4104,1.416,1.4146,1.4167,1.4167,1.4179,1.4178,1.4233,1.419,1.4189,1.4189,1.4189,0,1.3828,1.3861,1.3883,1.3906,1.3942,1.3955,1.3991,1.4005,1.4027,1.4053,1.4058,1.4082,1.4098,1.4124,1.4134,1.4169,1.4177,1.4184,1.4186,1.4183,1.4182,1.4193,1.419,1.4191,1.4191,1.419,1.419,0,1.3863,1.3879,1.3921,1.3951,1.3959,1.3984,1.4009,1.4031,1.4044,1.4077,1.4085,1.4106,1.4137,1.4152,1.419,1.4197,1.4237,1.4237,1.4228,1.4229,1.4249,1.4246,1.4312,1.4321,1.4273,1.4273,1.4273,0,1.3891,1.3916,1.3948,1.3966,1.3982,1.4011,1.403,1.4043,1.4062,1.4093,1.4112,1.4143,1.4169,1.4218,1.4236,1.4265,1.4266,1.4287,1.427,1.4266,1.4265,1.4263,1.4265,1.429,1.429,1.429,1.4291,0,1.3939,1.3945,1.3973,1.4003,1.4026,1.405,1.4074,1.4088,1.4105,1.4127,1.4158,1.4178,1.4217,1.4248,1.4278,1.4293,1.4294,1.4296,1.4302,1.4299,1.4292,1.4296,1.4236,1.4294,1.4294,1.4294,1.4293,1.4293,1.3971,1.3993,1.4019,1.4049,1.4068,1.409,1.4113,1.4129,1.4155,1.4188,1.4194,1.4228,1.4252,1.4293,1.4309,1.4335,1.433,1.4339,1.4341,1.4343,1.4344,1.4289,1.434,1.434,1.434,1.434,1.434,0,1.4018,1.4035,1.4062,1.4096,1.4119,1.4119,1.4145,1.4165,1.4194,1.4217,1.4242,1.4278,1.4307,1.4328,1.4357,1.4374,1.4375,1.4381,1.438,1.4383,1.4347,1.4338,1.438,1.438,1.438,1.4379,1.4379,1.4379,1.4045,1.4082,1.4092,1.4138,1.4155,1.4188,1.4203,1.4223,1.4241,1.4281,1.4305,1.4319,1.434,1.4371,1.4398,1.4403,1.4413,1.4419,1.4424,1.439,1.4386,1.4382,1.4374,1.4422,1.4422,1.4458,1.4458,1.4458]},{"header":{"parameterUnit":"m.s-1","parameterCategory":1,"la1":30.2991,"la2":30.254,"lo1":-89.0895,"lo2":-89.0444,"dy":0.0017,"dx":0.0017,"nx":28,"ny":28,"refTime":"2025-05-15T09:00:00:Z","depth":0,"parameterNumber":3,"parameterNumberName":"V-component_of_WINDS"},"data":[0,0,0,0,0,0,0,0,0,0,0,0,0,0,0,0,0,0,0,0,0,0,0,0,0,0,0,0,0,0,0,0,0,0,0,0,0,0,0,0,0,0,0,0,0,0,0,0,0,0,0,0,0,0,0,0,0,0,4.5875,4.5876,0,4.5937,4.5937,4.5938,4.5909,4.5907,4.5906,4.5904,4.5962,4.5965,4.5968,0,0,0,0,0,0,0,0,0,0,0,0,0,4.5727,4.573,4.5875,4.5876,4.5877,4.5937,4.5938,4.5938,4.5909,4.5907,4.5905,4.5903,4.5961,4.5965,4.5968,0,0,0,0,0,0,0,0,0,0,0,0,0,4.579,4.5731,4.5875,4.587,4.587,4.5937,4.5938,4.5939,4.5909,4.5907,4.5905,4.5903,4.596,4.5964,4.5969,4.6043,0,0,4.5982,4.5984,0,0,0,0,0,0,0,0,4.5787,4.5796,4.587,4.587,4.587,4.5913,4.5907,4.5973,4.591,4.5894,4.5904,4.5901,4.5947,4.5953,4.5969,4.6046,4.6048,4.5983,4.5985,4.5987,4.5989,0,0,0,0,0,0,0,4.5783,4.5793,4.5899,4.5871,4.5871,4.5862,4.5869,4.5919,4.5933,4.5895,4.5893,4.5901,4.5947,4.5965,4.597,4.6049,4.5983,4.5987,4.5989,4.5991,4.619,4.6192,0,0,0,0,0,0,4.5779,4.579,4.5897,4.5901,4.5822,4.5867,4.5874,4.5901,4.5932,4.5935,4.5903,4.59,4.5958,4.5965,4.5972,4.6062,4.5987,4.5991,4.5994,4.6187,4.619,4.6193,0,0,0,0,0,0,4.5776,4.5789,4.5895,4.5845,4.5858,4.5872,4.5903,4.5904,4.5922,4.5938,4.594,4.592,4.5957,4.5966,4.6026,4.6064,4.5994,4.5998,4.6184,4.6188,4.6192,4.6242,0,0,0,0,0,0,4.5772,4.5788,4.5818,4.5846,4.5861,4.595,4.5905,4.5907,4.593,4.5926,4.5954,4.5956,4.5956,4.602,4.603,4.6068,4.6001,4.6181,4.6186,4.6191,4.6237,4.6247,4.6256,0,0,0,0,0,4.5767,4.5828,4.5819,4.5833,4.5898,4.5952,4.596,4.596,4.5933,4.5963,4.5973,4.5955,4.6057,4.6026,4.6038,4.6078,4.6179,4.6185,4.619,4.6233,4.6245,4.6255,0,0,0,0,0,0,4.5802,4.5832,4.5822,4.5895,4.5921,4.5947,4.5984,4.5972,4.6005,4.6,4.5996,4.6003,4.6066,4.6077,4.6042,4.6151,4.6114,4.6122,4.6142,4.6154,4.6163,4.6159,4.6005,0,0,0,0,0,4.5818,4.5861,4.5884,4.5946,4.596,4.597,4.5993,4.599,4.6017,4.6027,4.6042,4.6067,4.6105,4.613,4.6165,4.6238,4.6244,4.6271,4.6281,4.6288,4.6296,4.6336,4.6349,4.6212,4.6212,4.6212,0,0,4.5852,4.5874,4.5901,4.5953,4.5974,4.6017,4.5979,4.6026,4.6058,4.6034,4.6093,4.6104,4.6131,4.6199,4.6229,4.6211,4.6335,4.6296,4.6302,4.6305,4.6343,4.6356,4.6368,4.6216,4.6216,4.6215,0,0,4.5937,4.5957,4.6012,4.6033,4.6065,4.6071,4.6084,4.6111,4.6119,4.6178,4.6161,4.6198,4.6262,4.6283,4.6302,4.6395,4.6379,4.6406,4.6455,4.6494,4.6505,4.6514,4.6548,4.656,4.6413,4.6413,4.6413,0,4.5974,4.6041,4.604,4.609,4.6113,4.6095,4.6149,4.6169,4.621,4.6226,4.6205,4.6287,4.6304,4.6376,4.6399,4.6414,4.6429,4.6403,4.6503,4.6513,4.6522,4.6554,4.6567,4.6416,4.6416,4.6416,4.6415,0,4.6086,4.6132,4.6171,4.6214,4.6242,4.6293,4.6299,4.6327,4.6322,4.633,4.639,4.641,4.6449,4.6466,4.646,4.6538,4.6525,4.6504,4.6466,4.6538,4.6568,4.658,4.6421,4.642,4.6419,4.6418,0,0,4.6195,4.6237,4.6252,4.6271,4.6305,4.634,4.6389,4.643,4.6454,4.6482,4.6524,4.658,4.6561,4.6582,4.6578,4.6613,4.6686,4.6587,4.6588,4.6606,4.6772,4.6789,4.6804,4.6675,4.6678,4.6679,4.677,0,4.6282,4.6373,4.6374,4.6456,4.6498,4.6482,4.6525,4.655,4.6558,4.6594,4.6602,4.6643,4.6614,4.6627,4.666,4.667,4.6719,4.6663,4.6714,4.6715,4.6709,4.6819,4.6837,4.6922,4.6782,4.6784,4.6786,0,4.6397,4.6432,4.6519,4.6548,4.6565,4.6605,4.6642,4.6677,4.6704,4.6708,4.6732,4.6724,4.6773,4.6733,4.6801,4.6763,4.6783,4.6791,4.6795,4.68,4.6756,4.6829,4.6949,4.6963,4.6804,4.6802,4.6801,0,4.6469,4.6537,4.6599,4.6615,4.665,4.6678,4.6693,4.6718,4.6743,4.6774,4.679,4.6827,4.6847,4.6875,4.6876,4.6847,4.6945,4.6905,4.6949,4.6949,4.6971,4.697,4.7098,4.6982,4.6982,4.6982,4.6982,0,4.6568,4.6622,4.6632,4.667,4.673,4.6729,4.6788,4.68,4.6823,4.6862,4.6848,4.6884,4.6883,4.692,4.692,4.6977,4.6985,4.6989,4.6989,4.6992,4.6991,4.7006,4.7,4.6985,4.6985,4.6984,4.6983,0,4.6659,4.6668,4.6734,4.6761,4.6769,4.6813,4.6835,4.6871,4.6878,4.6927,4.6939,4.695,4.6992,4.6996,4.7044,4.7044,4.7113,4.7106,4.7105,4.7104,4.7149,4.7145,4.7292,4.7311,4.7182,4.7183,4.7184,0,4.6722,4.6764,4.6797,4.6823,4.684,4.6882,4.6908,4.6908,4.6935,4.697,4.7001,4.7042,4.7076,4.7144,4.7155,4.7192,4.7186,4.7235,4.7191,4.7193,4.7188,4.7186,4.7191,4.7243,4.7245,4.7246,4.7247,0,4.6834,4.6836,4.6875,4.6915,4.6947,4.6978,4.7007,4.7028,4.7032,4.7063,4.7108,4.7134,4.7184,4.7225,4.7262,4.7275,4.7262,4.726,4.7273,4.7276,4.7275,4.7278,4.713,4.7257,4.7256,4.7255,4.7255,4.7254,4.6914,4.695,4.698,4.7023,4.7045,4.7073,4.7108,4.7121,4.7158,4.7201,4.7198,4.7247,4.7273,4.7321,4.7337,4.7374,4.7358,4.7375,4.738,4.7385,4.739,4.7268,4.7381,4.738,4.738,4.738,4.738,0,4.7026,4.7044,4.7084,4.7126,4.716,4.7146,4.7178,4.7207,4.7251,4.7276,4.731,4.7361,4.7401,4.7416,4.7454,4.7481,4.7476,4.7491,4.749,4.7494,4.7402,4.7388,4.7495,4.7495,4.7495,4.7495,4.7495,4.7495,4.7088,4.715,4.7156,4.7228,4.7245,4.7295,4.7315,4.734,4.736,4.7419,4.7453,4.7463,4.7484,4.7524,4.7559,4.7563,4.7578,4.7596,4.7597,4.7511,4.75,4.7489,4.7476,4.7599,4.7599,4.7685,4.7686,4.7687]}]]